This demonstration page uses our WeatherBlox Daily Observations layout. Learn more.

Hourly Observations for May 12, 2019

Temp ( °F °C ) Dew Point ( °F °C ) Humidity (%) Winds ( mph kmh ) Pressure ( in mb ) Visibility ( mi km ) Precip ( " mm )
12:54 am 00:54 Clear 48 8.9 47 8.3 96 96 Calm 29.84 1010 10 16.0934 0 0
1:54 am 01:54 Mostly Cloudy with Mist and Fog 49 9.4 47 8.3 93 93 Calm 29.83 1010 3 4.82802 0 0
2:09 am 02:09 Mostly Cloudy with Mist and Fog 49 9.4 47 8.3 93 93 Calm 29.84 1011 5 8.0467 0 0
2:24 am 02:24 Mostly Cloudy with Mist and Fog 48 8.9 47 8.3 96 96 Calm 29.85 1011 1.5 2.41401 0 0
2:28 am 02:28 Cloudy with Mist and Fog 48 8.9 47 8.3 96 96 Calm 29.86 1011 0.75 1.207005 0 0
2:36 am 02:36 Cloudy with Mist and Fog 48 8.9 47 8.3 96 96 Calm 29.85 1011 2.5 4.02335 0 0
2:43 am 02:43 Cloudy with Mist and Fog 49 9.4 47 8.3 93 93 Calm 29.84 1011 6 9.65604 0 0
2:54 am 02:54 Cloudy with Light Rain 49 9.4 48 8.9 97 97 Calm 29.83 1010 6 9.65604 0 0.0254
3:02 am 03:02 Cloudy with Light Rain 49 9.4 48 8.9 97 97 Calm 29.84 1011 6 9.65604 0 0.0254
3:30 am 03:30 Cloudy with Nearby Thunderstorms 49 9.4 47 8.3 93 93 WSW 7 11 29.84 1011 6 9.65604 0.02 0.508
3:40 am 03:40 Cloudy with Heavy Rain 49 9.4 48 8.9 97 97 SW 7 11 29.84 1011 3 4.82802 0.06 1.524
3:49 am 03:49 Cloudy with Light Rain 48 9 48 9 100 100 WSW 8 13 29.85 1011 7 11.26538 0.07 1.778
3:54 am 03:54 Cloudy with Light Rain 49 9.4 48 8.9 97 97 SW 7 11 29.82 1010 10 16.0934 0.07 1.778
4:54 am 04:54 Mostly Cloudy 48 8.9 46 7.8 93 93 WNW 3 6 29.81 1010 10 16.0934 0 0.0254
5:54 am 05:54 Cloudy 48 8.9 45 7.2 89 89 Calm 29.82 1010 10 16.0934 0 0
6:54 am 06:54 Cloudy 48 8.9 45 7.2 89 89 Calm 29.82 1010 10 16.0934 0 0
7:54 am 07:54 Cloudy 50 10 44 6.7 80 80 Calm 29.83 1010 10 16.0934 0 0
8:54 am 08:54 Cloudy 50 10 45 7.2 83 83 WSW 6 9 29.83 1010 10 16.0934 0 0
9:10 am 09:10 Cloudy 51 10.6 46 7.8 83 83 W 6 9 29.84 1010 10 16.0934 0 0
9:26 am 09:26 Cloudy 52 11.1 46 7.8 80 80 W 7 11 29.84 1010 10 16.0934 0 0
9:54 am 09:54 Mostly Cloudy 53 11.7 46 7.8 77 77 WNW 7 11 29.83 1010 10 16.0934 0 0
10:06 am 10:06 Cloudy 53 11.7 45 7.2 74 74 NW 7 11 29.83 1010 10 16.0934 0 0
10:54 am 10:54 Cloudy 54 12.2 46 7.8 75 75 W 8 13 29.83 1010 10 16.0934 0 0
11:09 am 11:09 Cloudy 54 12.2 45 7.2 72 72 WNW 9 15 29.84 1011 10 16.0934 0 0
11:54 am 11:54 Cloudy 56 13.3 45 7.2 67 67 NW 12 19 29.84 1010 10 16.0934 0 0
12:54 pm 12:54 Cloudy 61 16.1 47 8.3 60 60 NW 12 19 29.83 1010 10 16.0934 0 0
1:54 pm 13:54 Cloudy 58 14.4 44 6.7 60 60 N 13 20 29.83 1010 10 16.0934 0 0
2:54 pm 14:54 Cloudy 61 16.1 43 6.1 52 52 NNW 10 17 29.83 1010 10 16.0934 0 0
3:54 pm 15:54 Cloudy 62 16.7 43 6.1 50 50 NNW 9 15 29.83 1010 10 16.0934 0 0
4:54 pm 16:54 Cloudy 64 17.8 43 6.1 46 46 N 13 20 29.83 1010 10 16.0934 0 0
5:54 pm 17:54 Mostly Sunny 64 17.8 43 6.1 46 46 N 9 15 29.83 1010 10 16.0934 0 0
6:54 pm 18:54 Mostly Cloudy 61 16.1 45 7.2 56 56 NE 10 17 29.84 1011 10 16.0934 0 0
7:54 pm 19:54 Sunny 59 15 46 7.8 62 62 E 9 15 29.85 1011 10 16.0934 0 0
8:54 pm 20:54 Clear 54 12.2 46 7.8 75 75 E 7 11 29.87 1012 10 16.0934 0 0
9:54 pm 21:54 Clear 53 11.7 46 7.8 77 77 E 6 9 29.9 1012 10 16.0934 0 0
10:54 pm 22:54 Clear 52 11.1 46 7.8 80 80 E 6 9 29.92 1013 10 16.0934 0 0
11:54 pm 23:54 Mostly Clear 51 10.6 46 7.8 83 83 ESE 9 15 29.93 1014 10 16.0934 0 0

Powered by AerisWeather